Vertical_Velocity
-1 -1 -1 -2 -2 -2 -1 -0 -0 -1 -1 -0 1 -2 -2 -1 -2 -3 -2 -2 1 -2
-0 -1 -0 -1 -1 -2 0 -0 -2 -4 -1 0 -0 -1 -2 -3 -3 -1 -2 -2 -3 -3
-1 -0 -1 -2 -1 -2 0 1 0 -0 -1 1 0 -4 -4 -1 -0 -3 0 -3 -5 -2
-1 -0 -1 -1 -0 -2 -2 1 -1 -1 -1 -4 -6 -2 -1 0 -1 -2 -4 1 -0 -0
-2 -1 -2 -2 1 -2 -2 -1 -2 -4 -3 -2 -0 0 -2 -2 -2 -4 -3 -2 -3 -3
-1 -1 -2 -1 -2 -2 -1 -1 -0 0 -3 -4 -1 -2 -3 -3 -4 -2 -1 -2 -3 -3
-1 -1 -1 -1 -2 -1 -1 -2 -1 -1 -1 -0 -2 -2 -3 -4 -3 -1 1 -1 -1 -3
-2 -3 -1 0 -1 -1 0 -1 -3 -2 2 -3 -1 -2 -4 -2 -3 -2 -2 -1 -0 -3
-2 -0 2 -1 -1 -1 -0 0 -0 1 -2 -3 -2 -3 -0 1 -3 -1 -3 -5 -2 -2
0 -1 -1 -0 -2 -2 -1 -3 -0 -0 -2 -2 -2 -1 -1 -1 -2 -2 -3 -4 -6 -7
-2 -2 -0 -1 -3 -2 -2 -3 -3 -1 -1 -3 -1 -2 -3 -2 -1 -2 -2 -0 -3 -4
-2 -1 -2 -3 -2 -3 -3 -2 1 1 -0 -1 -0 -3 -3 -4 -2 -3 -0 0 3 -5
-0 0 -1 -2 -1 -2 -3 -2 -2 -0 -1 -0 -4 -2 -4 -4 -4 -3 -2 12 1 5
-1 1 -1 -2 -1 -2 -2 -1 0 2 2 2 -2 -4 -4 -3 -3 -2 -5 -7 -9 -4
Height
1572 1571 1569 1568 1566 1564 1561 1558 1556 1554 1552 1548 1545 1542 1540 1537 1534 1531 1528 1526 1523 1520
1570 1569 1567 1565 1563 1562 1559 1557 1554 1552 1549 1545 1542 1538 1536 1533 1530 1527 1524 1521 1519 1516
1569 1567 1565 1563 1561 1559 1557 1554 1551 1548 1545 1542 1539 1536 1533 1530 1526 1523 1521 1517 1513 1510
1567 1565 1563 1561 1559 1557 1555 1552 1549 1545 1542 1539 1535 1532 1529 1525 1522 1519 1515 1511 1507 1503
1564 1562 1560 1559 1557 1554 1552 1549 1546 1542 1538 1535 1531 1527 1524 1520 1517 1513 1509 1504 1500 1496
1561 1559 1558 1556 1554 1551 1548 1545 1542 1538 1534 1530 1526 1523 1519 1516 1512 1508 1503 1498 1493 1488
1559 1557 1555 1552 1550 1548 1545 1541 1538 1534 1529 1526 1522 1518 1514 1510 1506 1501 1496 1490 1486 1480
1556 1555 1552 1549 1547 1545 1541 1537 1533 1530 1526 1521 1517 1513 1509 1505 1500 1494 1489 1484 1478 1473
1553 1552 1549 1546 1544 1541 1539 1534 1530 1525 1521 1517 1513 1509 1505 1500 1494 1489 1482 1476 1470 1466
1549 1548 1546 1543 1540 1538 1534 1530 1526 1521 1517 1512 1509 1504 1500 1495 1489 1483 1477 1471 1464 1458
1546 1544 1541 1539 1536 1534 1530 1526 1522 1517 1512 1508 1504 1499 1495 1489 1483 1477 1472 1466 1460 1454
1542 1539 1537 1535 1533 1529 1526 1522 1518 1513 1508 1503 1499 1495 1489 1484 1478 1472 1466 1460 1455 1450
1538 1535 1532 1530 1528 1525 1521 1518 1514 1509 1504 1499 1494 1490 1485 1481 1475 1467 1459 1454 1448 1444
1534 1531 1528 1525 1523 1520 1517 1514 1510 1505 1500 1495 1490 1486 1481 1477 1472 1465 1457 1449 1441 1437